Location: Nairn
(57.5833°N, 3.8667°W)
Time: 16:28:47
(UTC+00:00)

S-56A Canister/Altair - Pass Details

Date: 02 December 2020
Orbit: 633 x 2499 km, 38.9° (Epoch: 19 January)

Event Time Altitude Azimuth Distance (km) Brightness Sun altitude
Rises 17:37:04 0° 203° (SSW) 5,931 12.7 -14.9°
Reaches altitude 10° 17:43:16 10° 185° (S) 4,640 11.8 -15.7°
Maximum altitude 17:49:40 16° 154° (SSE) 3,776 10.9 -16.5°
Drops below altitude 10° 17:55:07 10° 122° (ESE) 3,837 10.7 -17.2°
Enters shadow 17:55:43 - 119° (ESE) 3,895 10.7 -17.3°
Sets 17:59:25 0° 102° (ESE) 4,460 - -17.8°
